Location: Newark
(50.9000°N, 14.8333°E)
Time: 11:37:30
(UTC+00:00)

N. Korean satellite - Pass Details

Date: 01 November 2020
Orbit: 453 x 503 km, 97.2° (Epoch: 03 December)

Event Time Altitude Azimuth Distance (km) Brightness Sun altitude
Rises 04:44:28 0° 12° (NNE) 2,483 10.2 -11.2°
Reaches altitude 10° 04:46:30 10° 13° (NNE) 1,602 9.2 -10.9°
Maximum altitude 04:49:56 87° 284° (WNW) 462 6.4 -10.4°
Drops below altitude 10° 04:53:21 10° 195° (SSW) 1,592 9.1 -9.8°
Sets 04:55:23 0° 195° (SSW) 2,464 10.1 -9.5°
